Wind_Speed
22 21 22 25 24 21 23 24 26 28 29 31 34 38 43 46 49 50 49 49 51 52 51 50 50 53 52 47 46 38 37 35 33 33 32 27 26 26 27 30 30 31 29
22 18 15 26 17 19 21 23 24 26 27 30 32 34 38 43 49 51 56 59 57 57 53 56 55 56 52 55 48 43 41 37 35 36 34 30 27 25 27 28 29 27 28
22 14 17 18 14 21 21 23 25 27 29 31 33 35 38 41 44 49 53 55 58 59 63 58 60 61 56 44 47 38 40 35 34 38 36 32 31 26 25 27 28 26 25
21 17 19 12 15 17 19 20 21 22 26 29 31 35 37 39 42 48 51 54 55 61 60 57 53 60 56 51 49 34 39 35 34 38 37 32 33 29 28 26 26 26 26
20 21 12 13 14 14 16 18 20 23 25 28 29 33 36 37 39 43 48 52 57 59 65 59 54 49 56 54 52 48 49 37 38 39 34 32 33 32 32 30 26 26 24
21 14 11 13 14 14 17 21 22 24 27 30 32 33 35 35 35 36 39 45 46 57 52 53 54 45 43 47 49 52 51 41 41 39 47 34 33 33 32 32 31 26 24
20 13 14 14 16 19 21 23 24 26 28 31 32 34 33 33 31 28 32 36 43 52 42 53 48 44 42 40 44 45 50 35 40 37 40 44 32 31 33 32 33 29 27
13 15 16 17 20 22 26 27 29 28 28 30 30 28 28 30 29 30 30 31 38 44 52 27 39 40 42 40 40 43 44 43 40 39 45 58 39 30 32 32 34 33 30
12 13 17 20 23 27 32 33 33 28 28 29 30 26 27 28 27 27 29 32 34 35 43 38 37 38 41 43 43 40 45 38 44 44 49 35 34 30 32 33 34 33 34
8 15 21 25 29 33 36 38 33 29 28 29 29 27 25 26 22 22 25 25 27 33 35 35 36 34 35 39 36 43 46 43 48 41 38 33 37 35 34 34 33 33 34
12 18 25 31 36 37 39 34 32 28 27 27 27 28 25 25 22 20 23 23 23 27 36 37 37 39 32 35 38 39 41 46 39 41 42 42 42 41 38 35 35 34 32
21 26 30 34 37 36 35 29 28 27 26 25 24 27 26 27 25 23 23 26 30 31 33 36 38 36 33 26 31 37 39 41 40 45 44 44 42 38 37 36 34 32 27
26 27 29 30 32 30 30 28 29 28 26 25 23 24 26 26 26 27 26 28 27 28 35 34 33 36 34 33 32 32 37 42 33 37 40 30 31 33 37 33 33 30 29
27 26 26 27 28 27 27 25 26 25 24 24 23 24 23 23 28 30 35 32 27 29 32 34 28 37 28 29 33 36 43 42 38 37 26 31 32 33 32 33 35 33 31
27 26 24 23 23 24 23 22 22 22 21 21 21 20 20 22 20 22 27 30 33 29 32 35 37 35 24 27 28 32 37 38 35 45 46 36 32 30 32 32 31 31 36
24 23 19 19 20 20 19 18 17 17 17 18 20 20 20 18 18 20 24 25 32 35 23 39 50 30 31 31 30 31 32 36 35 29 35 28 30 30 30 30 30 31 34
21 18 14 14 16 14 12 11 11 13 16 18 19 19 17 15 13 13 13 18 25 27 25 38 49 28 39 33 32 32 35 29 31 29 28 31 31 34 36 31 31 32 31
16 14 11 12 11 6 5 6 9 12 14 17 17 16 16 14 11 9 10 9 14 17 25 18 18 28 30 38 32 35 34 33 39 35 31 36 34 33 33 31 30 32 32
11 10 8 6 3 2 4 8 10 12 16 14 16 17 20 20 21 19 17 15 15 9 15 16 25 28 32 33 29 34 36 38 37 36 37 36 36 33 31 31 32 25 23
8 5 3 2 2 3 7 10 10 13 12 15 18 19 22 23 24 26 26 25 20 16 12 8 10 25 32 35 43 41 40 43 36 35 36 35 37 32 31 31 29 28 24
2 2 3 3 5 7 11 10 11 11 15 16 17 19 21 23 23 25 25 25 25 24 21 18 12 8 12 14 25 42 39 40 45 50 45 42 36 33 30 32 29 29 26
1 2 3 4 7 10 10 10 10 13 14 15 17 18 20 21 21 22 22 23 23 22 21 21 19 17 13 4 11 18 18 21 28 29 30 33 32 29 26 29 30 29 31
3 4 7 10 11 11 10 11 12 13 14 15 16 17 19 20 20 20 20 20 20 20 20 19 18 18 18 17 14 8 4 10 13 15 24 26 29 27 30 32 35 34 29
8 8 9 10 10 9 9 10 12 13 14 15 16 17 18 19 19 19 19 19 19 19 20 20 18 17 16 16 15 14 13 11 10 7 8 11 16 25 30 33 31 34 39
9 9 9 9 9 10 12 13 13 15 15 16 17 18 18 18 19 20 20 20 21 20 18 17 18 18 16 14 14 13 13 13 12 12 11 10 10 10 13 16 18 19 22
7 7 7 8 9 10 11 12 13 14 14 15 16 17 18 19 20 20 21 22 22 22 22 21 19 18 19 19 16 15 15 13 12 12 12 12 12 11 11 12 13 13 13
Wind_Direction
221 222 228 242 258 255 258 261 260 261 261 258 257 256 255 256 257 258 256 256 255 252 246 247 247 250 244 242 248 249 254 255 252 254 256 263 272 275 272 267 271 273 270
215 223 239 256 253 259 263 265 268 269 269 268 265 261 257 255 257 259 259 257 253 254 251 245 248 250 248 238 241 243 250 253 249 250 254 258 264 274 275 273 274 280 270
206 218 244 254 266 270 272 273 275 276 277 277 275 271 270 267 259 254 256 259 261 258 256 251 249 249 251 233 236 243 249 255 253 247 251 253 263 273 274 276 278 279 276
183 204 239 263 273 277 281 283 284 282 279 277 277 277 274 271 267 260 255 253 255 259 259 258 253 251 253 246 248 246 258 253 257 248 248 253 260 269 276 275 279 276 267
194 223 236 249 268 287 295 295 297 295 296 295 290 287 282 280 273 263 260 253 251 251 253 252 254 250 252 254 256 246 242 247 251 246 248 251 257 263 272 279 282 274 266
215 222 244 257 280 301 310 307 304 303 305 307 305 298 294 289 279 270 264 254 247 250 250 252 249 246 248 252 250 241 235 241 248 246 250 252 256 263 270 279 284 279 261
223 238 256 269 285 292 298 319 314 310 308 309 308 304 294 289 283 278 276 256 247 241 249 238 242 242 249 255 247 250 230 245 252 255 258 248 252 260 266 272 280 278 258
228 248 265 277 287 294 298 311 314 309 309 307 308 301 295 293 283 279 273 263 253 250 252 242 240 246 252 257 254 239 236 238 251 262 259 256 243 251 262 271 279 274 258
235 256 270 285 293 299 304 304 309 304 310 309 312 300 288 293 289 284 270 260 256 258 245 245 247 248 255 251 248 236 237 241 253 263 265 224 238 258 261 271 279 273 260
270 273 281 292 296 303 305 309 306 303 307 313 311 307 291 288 290 288 275 258 253 247 241 242 248 259 257 251 247 236 234 242 248 253 258 245 243 252 259 270 279 269 255
292 296 295 297 301 303 306 307 307 306 304 307 309 313 286 285 278 278 276 262 250 237 235 240 249 258 255 255 247 235 235 237 241 250 254 246 243 254 254 266 269 261 262
293 299 298 295 297 300 302 305 308 311 307 307 311 310 292 274 274 271 266 256 258 239 234 240 247 245 251 250 241 237 238 242 252 249 260 231 243 240 249 261 263 251 258
306 305 301 298 300 298 300 306 307 313 314 313 312 311 301 280 272 272 266 260 264 251 235 237 237 238 240 241 239 236 239 243 256 274 248 220 231 239 249 259 256 252 251
309 308 303 297 299 303 306 309 313 313 316 319 317 313 305 285 287 274 263 256 253 249 241 240 241 253 238 237 235 230 230 237 256 271 271 232 237 243 253 254 247 254 249
304 302 297 295 298 302 312 313 313 314 319 322 321 316 307 305 287 284 277 258 248 249 242 243 238 251 216 229 225 224 231 240 256 261 231 237 244 255 255 245 247 252 257
302 302 298 296 302 310 313 314 318 322 329 337 337 322 312 303 305 308 285 260 261 239 252 232 238 234 238 226 225 228 234 243 258 213 228 236 245 250 244 245 246 248 251
308 301 299 300 306 308 312 317 325 342 351 356 352 344 322 308 318 320 291 251 257 266 261 237 244 240 231 225 230 235 237 241 239 255 250 246 248 245 244 245 254 254 251
302 305 299 303 305 318 340 2 17 9 11 5 6 0 4 6 357 344 333 311 250 252 248 262 248 249 228 230 234 236 239 238 227 247 249 249 246 246 248 252 250 253 258
307 297 295 290 311 18 52 46 32 25 28 18 24 28 30 28 30 33 28 14 5 345 271 264 238 252 228 231 233 230 236 236 242 246 255 250 242 243 244 245 243 255 266
299 306 338 23 40 68 62 56 46 40 36 38 30 34 38 36 36 36 38 40 36 25 14 313 287 241 237 233 219 211 228 231 237 246 250 235 245 243 243 240 243 248 262
303 4 46 60 72 73 61 51 53 51 47 45 40 39 41 42 39 39 38 38 38 37 35 31 17 327 275 244 238 216 212 220 240 245 239 245 241 242 242 242 243 246 254
29 74 94 93 70 59 55 53 48 53 46 40 35 35 37 37 37 38 37 36 31 32 32 32 31 29 35 4 254 235 221 209 211 223 228 236 238 235 237 226 245 244 255
96 91 84 70 61 54 48 45 46 47 44 39 34 31 31 30 29 28 26 26 27 25 29 31 23 17 20 21 23 19 306 251 237 226 226 231 235 229 230 228 233 233 245
88 76 66 60 55 52 48 42 38 36 35 30 28 25 22 21 20 20 18 17 15 15 15 14 17 22 17 9 5 7 7 0 348 327 305 263 252 236 238 239 241 240 239
67 58 54 51 45 41 38 35 31 29 26 24 21 18 16 14 11 6 6 4 4 4 6 3 359 358 359 354 354 354 349 345 342 339 332 318 301 288 281 264 257 254 250
53 47 44 43 41 40 39 34 27 22 16 14 11 8 6 3 1 359 357 354 353 353 351 350 347 343 339 339 338 333 329 327 325 317 311 309 309 303 293 288 282 280 274
Height
3052 3049 3045 3045 3047 3048 3049 3051 3051 3053 3053 3054 3055 3055 3056 3058 3059 3061 3064 3066 3066 3068 3074 3075 3078 3076 3080 3086 3087 3090 3092 3093 3095 3097 3098 3100 3101 3101 3102 3102 3102 3104 3104
3046 3043 3040 3042 3041 3042 3045 3045 3046 3046 3047 3046 3047 3048 3048 3049 3049 3051 3051 3054 3056 3056 3060 3064 3067 3066 3069 3071 3074 3079 3082 3083 3086 3090 3092 3093 3096 3096 3096 3097 3096 3097 3098
3038 3038 3037 3038 3038 3036 3039 3040 3040 3039 3039 3038 3037 3038 3037 3037 3039 3041 3041 3041 3042 3045 3044 3050 3055 3057 3051 3019 3061 3068 3074 3075 3076 3082 3086 3084 3089 3091 3091 3091 3090 3091 3091
3030 3030 3033 3035 3034 3033 3033 3033 3033 3032 3032 3030 3029 3027 3026 3025 3026 3025 3028 3029 3030 3028 3033 3036 3040 3043 3045 3051 3051 3051 3065 3066 3069 3075 3080 3079 3082 3083 3085 3086 3085 3085 3085
3024 3027 3029 3031 3029 3029 3028 3028 3027 3025 3024 3022 3020 3017 3014 3013 3012 3012 3012 3014 3016 3015 3015 3017 3023 3029 3033 3039 3045 3046 3054 3054 3061 3066 3073 3072 3075 3078 3077 3079 3081 3079 3079
3022 3024 3025 3025 3025 3024 3023 3021 3020 3017 3015 3013 3009 3005 3002 3000 2999 2999 2999 2998 3002 3002 3007 3009 3014 3018 3019 3025 3032 3034 3040 3046 3051 3056 3063 3064 3069 3072 3072 3072 3072 3072 3073
3018 3020 3021 3020 3021 3019 3017 3015 3012 3011 3008 3004 3000 2996 2992 2989 2988 2989 2989 2989 2989 2991 2993 2988 3005 3009 3008 3015 3020 3024 3007 3033 3042 3046 3051 3060 3061 3064 3066 3067 3065 3065 3067
3014 3016 3016 3015 3015 3014 3012 3010 3007 3006 3002 2997 2993 2988 2985 2982 2982 2981 2981 2980 2979 2984 2986 2980 2997 3000 3001 3007 3010 3017 3021 3027 3033 3037 3040 3047 3053 3054 3057 3059 3059 3058 3059
3010 3011 3009 3009 3010 3009 3006 3004 3002 3001 2995 2990 2986 2982 2979 2977 2974 2974 2973 2973 2972 2974 2980 2986 2988 2989 2996 2999 3003 3008 3014 3020 3026 3029 3031 3034 3041 3045 3048 3051 3051 3051 3051
3003 3006 3006 3004 3004 3003 3000 2997 2995 2992 2988 2984 2979 2975 2973 2971 2969 2968 2967 2966 2966 2968 2971 2977 2980 2985 2989 2991 2996 3001 3007 3011 3017 3020 3022 3025 3032 3036 3039 3043 3043 3043 3044
3004 3004 3001 2998 2998 2997 2994 2991 2988 2985 2982 2978 2974 2969 2967 2967 2965 2964 2963 2962 2961 2964 2968 2972 2974 2977 2980 2983 2987 2993 2999 2993 3007 3014 3016 3019 3024 3027 3031 3033 3036 3036 3037
3002 3000 2998 2994 2994 2992 2988 2986 2982 2978 2975 2972 2967 2963 2960 2961 2960 2959 2958 2957 2957 2958 2961 2964 2967 2969 2973 2975 2979 2986 2992 2997 3002 3004 3006 3004 3013 3018 3022 3025 3026 3028 3030
3000 2998 2994 2992 2990 2986 2983 2980 2976 2972 2968 2965 2961 2957 2954 2952 2952 2953 2952 2951 2949 2948 2952 2952 2955 2961 2965 2968 2973 2979 2985 2990 2993 2993 2986 2988 3006 3009 3013 3015 3018 3020 3022
2995 2993 2989 2987 2983 2980 2979 2974 2971 2968 2963 2958 2954 2951 2948 2946 2944 2943 2942 2944 2944 2947 2948 2949 2946 2951 2953 2962 2965 2970 2975 2983 2986 2985 2986 2991 2996 3000 3002 3005 3009 3011 3014
2989 2988 2985 2982 2981 2980 2972 2970 2968 2964 2959 2954 2950 2946 2943 2942 2939 2936 2936 2934 2936 2939 2941 2944 2946 2947 2944 2955 2960 2964 2970 2975 2977 2979 2982 2984 2988 2992 2994 2998 3001 3004 3005
2984 2984 2981 2980 2979 2973 2969 2967 2964 2960 2956 2952 2947 2943 2941 2938 2935 2930 2926 2925 2929 2931 2930 2936 2935 2943 2945 2951 2955 2959 2964 2968 2969 2972 2973 2978 2982 2985 2987 2990 2993 2995 2997
2981 2979 2978 2977 2973 2969 2967 2965 2962 2958 2955 2950 2946 2942 2938 2935 2931 2928 2925 2922 2924 2926 2926 2927 2928 2932 2940 2943 2949 2953 2957 2960 2963 2966 2969 2972 2975 2978 2981 2982 2985 2986 2989
2978 2976 2974 2972 2970 2967 2966 2964 2961 2958 2955 2951 2947 2943 2939 2935 2930 2927 2924 2922 2919 2919 2920 2922 2923 2927 2927 2938 2942 2947 2949 2953 2956 2959 2963 2965 2967 2970 2974 2975 2978 2980 2980
2975 2974 2972 2970 2969 2967 2965 2962 2960 2959 2955 2952 2948 2945 2941 2937 2932 2927 2924 2921 2918 2916 2916 2918 2920 2922 2925 2928 2934 2940 2943 2945 2949 2952 2955 2957 2960 2963 2966 2968 2971 2972 2972
2973 2973 2971 2969 2968 2967 2964 2962 2961 2959 2957 2954 2951 2947 2942 2939 2935 2931 2927 2924 2921 2918 2917 2916 2916 2917 2920 2923 2927 2929 2933 2938 2941 2945 2948 2950 2953 2955 2958 2961 2962 2964 2964
2973 2972 2971 2970 2968 2967 2965 2964 2962 2961 2958 2956 2954 2951 2946 2942 2939 2935 2933 2930 2926 2923 2921 2919 2918 2918 2918 2919 2919 2919 2921 2927 2930 2936 2939 2942 2945 2947 2949 2952 2955 2957 2958
2973 2973 2972 2971 2969 2967 2967 2966 2965 2962 2961 2958 2956 2953 2950 2947 2943 2940 2938 2935 2932 2929 2926 2925 2924 2922 2919 2918 2918 2919 2918 2917 2921 2926 2927 2932 2935 2938 2940 2944 2947 2949 2950
2975 2974 2973 2972 2971 2970 2970 2969 2967 2965 2963 2961 2959 2956 2953 2950 2947 2945 2942 2940 2937 2934 2931 2928 2926 2925 2923 2923 2922 2921 2919 2918 2920 2919 2920 2924 2929 2930 2934 2934 2936 2939 2941
2977 2976 2975 2974 2974 2974 2973 2971 2969 2967 2965 2963 2960 2958 2955 2952 2950 2948 2945 2943 2940 2937 2934 2931 2930 2928 2926 2925 2924 2922 2921 2920 2919 2918 2919 2918 2918 2921 2923 2925 2927 2930 2932
2978 2978 2977 2977 2977 2976 2974 2973 2972 2969 2967 2965 2963 2961 2958 2955 2952 2950 2947 2944 2941 2938 2936 2934 2932 2930 2929 2928 2925 2923 2921 2920 2919 2918 2917 2917 2918 2917 2918 2919 2921 2923 2924
2980 2980 2980 2979 2978 2977 2976 2975 2973 2971 2969 2967 2964 2962 2959 2956 2953 2951 2948 2944 2942 2939 2936 2934 2933 2930 2928 2926 2925 2923 2922 2920 2919 2919 2919 2918 2916 2915 2917 2917 2917 2920 2919